Time,TemperatureF,DewpointF,PressureIn,WindDirection,WindDirectionDegrees,WindSpeedMPH,WindSpeedGustMPH,Humidity,HourlyPrecipIn,Conditions,Clouds,dailyrainin,SolarRadiationWatts/m^2,SoftwareType,DateUTC
2013-02-07 00:03:00,32.2,29.0,30.19,South,175,0.0,-999.0,87,-99.99,,,0.29,0,weatherlink.com 1.10,2013-02-07 06:03:00,
2013-02-07 00:18:00,32.1,29.0,30.19,SSE,168,0.0,-999.0,87,-99.99,,,0.00,0,weatherlink.com 1.10,2013-02-07 06:18:00,
2013-02-07 00:34:00,32.0,29.0,30.18,South,187,0.0,-999.0,88,-99.99,,,0.00,0,weatherlink.com 1.10,2013-02-07 06:34:00,
2013-02-07 00:48:00,31.9,29.0,30.18,South,186,0.0,-999.0,88,-99.99,,,0.00,0,weatherlink.com 1.10,2013-02-07 06:48:00,
2013-02-07 01:03:00,31.9,29.0,30.18,South,183,0.0,-999.0,88,-99.99,,,0.00,0,weatherlink.com 1.10,2013-02-07 07:03:00,
2013-02-07 01:18:00,32.0,29.0,30.18,South,182,0.0,-999.0,88,-99.99,,,0.00,0,weatherlink.com 1.10,2013-02-07 07:18:00,
2013-02-07 01:34:00,32.0,29.0,30.19,South,190,0.0,-999.0,88,-99.99,,,0.00,0,weatherlink.com 1.10,2013-02-07 07:34:00,
2013-02-07 01:48:00,32.0,29.0,30.20,SSW,194,0.0,-999.0,88,-99.99,,,0.01,0,weatherlink.com 1.10,2013-02-07 07:48:00,
2013-02-07 02:04:00,32.0,29.0,30.20,South,178,0.0,-999.0,88,-99.99,,,0.01,0,weatherlink.com 1.10,2013-02-07 08:04:00,
2013-02-07 02:19:00,31.9,29.0,30.18,South,186,0.0,-999.0,88,-99.99,,,0.01,0,weatherlink.com 1.10,2013-02-07 08:19:00,
2013-02-07 02:34:00,31.8,29.0,30.18,South,170,0.0,-999.0,88,-99.99,,,0.01,0,weatherlink.com 1.10,2013-02-07 08:34:00,
2013-02-07 02:49:00,31.7,29.0,30.18,SSW,195,0.0,-999.0,88,-99.99,,,0.01,0,weatherlink.com 1.10,2013-02-07 08:49:00,
2013-02-07 03:04:00,31.6,29.0,30.18,SSE,149,0.0,-999.0,88,-99.99,,,0.01,0,weatherlink.com 1.10,2013-02-07 09:04:00,
2013-02-07 03:19:00,31.5,29.0,30.17,South,173,0.0,-999.0,89,-99.99,,,0.01,0,weatherlink.com 1.10,2013-02-07 09:19:00,
2013-02-07 03:34:00,31.6,29.0,30.16,South,186,0.0,-999.0,89,-99.99,,,0.02,0,weatherlink.com 1.10,2013-02-07 09:34:00,
2013-02-07 03:49:00,31.5,29.0,30.16,South,173,0.0,-999.0,90,-99.99,,,0.02,0,weatherlink.com 1.10,2013-02-07 09:49:00,
2013-02-07 04:04:00,31.5,29.0,30.16,South,171,0.0,-999.0,91,-99.99,,,0.02,0,weatherlink.com 1.10,2013-02-07 10:04:00,
2013-02-07 04:19:00,31.5,30.0,30.15,SSE,163,0.0,-999.0,92,-99.99,,,0.02,0,weatherlink.com 1.10,2013-02-07 10:19:00,
2013-02-07 04:34:00,31.5,30.0,30.15,South,173,0.0,-999.0,92,-99.99,,,0.02,0,weatherlink.com 1.10,2013-02-07 10:34:00,
2013-02-07 04:49:00,31.5,30.0,30.16,South,175,0.0,-999.0,92,-99.99,,,0.02,0,weatherlink.com 1.10,2013-02-07 10:49:00,
2013-02-07 05:04:00,31.5,30.0,30.15,South,178,0.0,-999.0,93,-99.99,,,0.02,0,weatherlink.com 1.10,2013-02-07 11:04:00,
2013-02-07 05:19:00,31.5,30.0,30.15,SSE,163,0.0,-999.0,93,-99.99,,,0.02,0,weatherlink.com 1.10,2013-02-07 11:19:00,
2013-02-07 05:34:00,31.5,30.0,30.15,South,169,0.0,-999.0,93,-99.99,,,0.03,0,weatherlink.com 1.10,2013-02-07 11:34:00,
2013-02-07 05:49:00,31.5,30.0,30.15,SSE,163,0.0,-999.0,93,-99.99,,,0.03,0,weatherlink.com 1.10,2013-02-07 11:49:00,
2013-02-07 06:04:00,31.5,30.0,30.15,South,175,0.0,-999.0,93,-99.99,,,0.03,0,weatherlink.com 1.10,2013-02-07 12:04:00,
2013-02-07 06:19:00,31.6,30.0,30.14,South,169,0.0,-999.0,93,-99.99,,,0.03,0,weatherlink.com 1.10,2013-02-07 12:19:00,
2013-02-07 06:34:00,31.6,30.0,30.13,South,169,0.0,-999.0,94,-99.99,,,0.04,0,weatherlink.com 1.10,2013-02-07 12:34:00,
2013-02-07 06:49:00,31.6,30.0,30.13,SSE,165,0.0,-999.0,94,-99.99,,,0.04,0,weatherlink.com 1.10,2013-02-07 12:49:00,
2013-02-07 07:04:00,31.5,30.0,30.12,South,177,0.0,-999.0,94,-99.99,,,0.04,0,weatherlink.com 1.10,2013-02-07 13:04:00,
2013-02-07 07:19:00,31.5,30.0,30.13,SE,132,0.0,-999.0,94,-99.99,,,0.04,0,weatherlink.com 1.10,2013-02-07 13:19:00,
2013-02-07 07:34:00,31.5,30.0,30.12,South,180,0.0,-999.0,94,-99.99,,,0.04,11,weatherlink.com 1.10,2013-02-07 13:34:00,
2013-02-07 07:49:00,31.5,30.0,30.11,SSE,156,0.0,-999.0,94,-99.99,,,0.04,23,weatherlink.com 1.10,2013-02-07 13:49:00,
2013-02-07 08:04:00,31.6,30.0,30.11,SSE,155,0.0,-999.0,94,-99.99,,,0.05,23,weatherlink.com 1.10,2013-02-07 14:04:00,
2013-02-07 08:19:00,31.7,30.0,30.11,South,176,0.0,-999.0,94,-99.99,,,0.05,32,weatherlink.com 1.10,2013-02-07 14:19:00,
2013-02-07 08:34:00,31.7,30.0,30.11,South,181,0.0,-999.0,94,-99.99,,,0.05,35,weatherlink.com 1.10,2013-02-07 14:34:00,
2013-02-07 08:49:00,31.7,30.0,30.11,SSE,160,0.0,-999.0,94,-99.99,,,0.05,33,weatherlink.com 1.10,2013-02-07 14:49:00,
2013-02-07 09:04:00,31.8,30.0,30.11,SSE,160,0.0,-999.0,94,-99.99,,,0.06,35,weatherlink.com 1.10,2013-02-07 15:04:00,
2013-02-07 09:19:00,31.9,30.0,30.10,South,178,0.0,-999.0,94,-99.99,,,0.06,42,weatherlink.com 1.10,2013-02-07 15:19:00,
2013-02-07 09:35:00,31.9,31.0,30.09,SSE,150,0.0,-999.0,95,-99.99,,,0.06,90,weatherlink.com 1.10,2013-02-07 15:35:00,
2013-02-07 09:49:00,-999.0,-99.9,30.09,SSE,167,0.0,-999.0,95,-99.99,,,0.06,114,weatherlink.com 1.10,2013-02-07 15:49:00,
2013-02-07 10:04:00,-999.0,-99.9,30.09,South,185,0.0,-999.0,-999,-99.99,,,0.06,81,weatherlink.com 1.10,2013-02-07 16:04:00,
2013-02-07 10:19:00,-999.0,-99.9,30.09,SSE,156,0.0,-999.0,-999,-99.99,,,0.06,56,weatherlink.com 1.10,2013-02-07 16:19:00,
2013-02-07 10:34:00,-999.0,-99.9,30.09,South,182,0.0,-999.0,-999,-99.99,,,0.07,49,weatherlink.com 1.10,2013-02-07 16:34:00,
2013-02-07 10:50:00,-999.0,-99.9,30.09,SSE,160,0.0,-999.0,-999,-99.99,,,0.07,47,weatherlink.com 1.10,2013-02-07 16:50:00,
2013-02-07 11:05:00,-999.0,-99.9,30.08,SSE,160,0.0,-999.0,-999,-99.99,,,0.07,54,weatherlink.com 1.10,2013-02-07 17:05:00,
2013-02-07 11:20:00,-999.0,-99.9,30.07,SSE,160,0.0,-999.0,-999,-99.99,,,0.08,54,weatherlink.com 1.10,2013-02-07 17:20:00,
2013-02-07 11:35:00,-999.0,-99.9,30.06,SSE,160,0.0,-999.0,-999,-99.99,,,0.08,54,weatherlink.com 1.10,2013-02-07 17:35:00,
2013-02-07 11:50:00,-999.0,-99.9,30.05,South,183,0.0,-999.0,-999,-99.99,,,0.08,72,weatherlink.com 1.10,2013-02-07 17:50:00,
2013-02-07 12:05:00,-999.0,-99.9,30.04,SE,144,0.0,-999.0,-999,-99.99,,,0.08,60,weatherlink.com 1.10,2013-02-07 18:05:00,
2013-02-07 12:20:00,-999.0,-99.9,30.02,SSE,154,0.0,-999.0,-999,-99.99,,,0.09,79,weatherlink.com 1.10,2013-02-07 18:20:00,
2013-02-07 12:35:00,-999.0,-99.9,30.02,SSE,155,0.0,-999.0,-999,-99.99,,,0.09,63,weatherlink.com 1.10,2013-02-07 18:35:00,
2013-02-07 12:50:00,-999.0,-99.9,30.02,SSE,159,0.0,-999.0,-999,-99.99,,,0.10,58,weatherlink.com 1.10,2013-02-07 18:50:00,
2013-02-07 13:05:00,-999.0,-99.9,30.01,SSE,165,0.0,-999.0,-999,-99.99,,,0.10,39,weatherlink.com 1.10,2013-02-07 19:05:00,
2013-02-07 13:21:00,-999.0,-99.9,30.00,SSE,165,0.0,-999.0,-999,-99.99,,,0.10,35,weatherlink.com 1.10,2013-02-07 19:21:00,
2013-02-07 13:35:00,-999.0,-99.9,29.98,SSE,165,0.0,-999.0,-999,-99.99,,,0.11,37,weatherlink.com 1.10,2013-02-07 19:35:00,
2013-02-07 13:51:00,-999.0,-99.9,29.99,SSE,165,0.0,-999.0,-999,-99.99,,,0.11,32,weatherlink.com 1.10,2013-02-07 19:51:00,
2013-02-07 14:06:00,-999.0,-99.9,29.98,SSE,163,0.0,-999.0,-999,-99.99,,,0.12,30,weatherlink.com 1.10,2013-02-07 20:06:00,
2013-02-07 14:21:00,-999.0,-99.9,29.98,SSE,163,0.0,-999.0,-999,-99.99,,,0.12,28,weatherlink.com 1.10,2013-02-07 20:21:00,
2013-02-07 14:36:00,-999.0,-99.9,29.97,SSE,163,0.0,-999.0,-999,-99.99,,,0.12,23,weatherlink.com 1.10,2013-02-07 20:36:00,
2013-02-07 14:51:00,-999.0,-99.9,29.97,SSE,163,0.0,-999.0,-999,-99.99,,,0.13,23,weatherlink.com 1.10,2013-02-07 20:51:00,
2013-02-07 15:06:00,-999.0,-99.9,29.96,SSE,163,0.0,-999.0,-999,-99.99,,,0.13,25,weatherlink.com 1.10,2013-02-07 21:06:00,
2013-02-07 15:21:00,-999.0,-99.9,29.95,SSE,163,0.0,-999.0,-999,-99.99,,,0.14,14,weatherlink.com 1.10,2013-02-07 21:21:00,
2013-02-07 15:36:00,-999.0,-99.9,29.95,SSE,163,0.0,-999.0,-999,-99.99,,,0.14,14,weatherlink.com 1.10,2013-02-07 21:36:00,
2013-02-07 15:51:00,-999.0,-99.9,29.95,SSE,163,0.0,-999.0,-999,-99.99,,,0.14,14,weatherlink.com 1.10,2013-02-07 21:51:00,
2013-02-07 16:06:00,-999.0,-99.9,29.95,SSE,163,0.0,-999.0,-999,-99.99,,,0.15,9,weatherlink.com 1.10,2013-02-07 22:06:00,
2013-02-07 16:21:00,-999.0,-99.9,29.95,SSE,163,0.0,-999.0,-999,-99.99,,,0.15,5,weatherlink.com 1.10,2013-02-07 22:21:00,
2013-02-07 16:36:00,-999.0,-99.9,29.95,SSE,163,0.0,-999.0,-999,-99.99,,,0.16,9,weatherlink.com 1.10,2013-02-07 22:36:00,
2013-02-07 16:51:00,-999.0,-99.9,29.95,SSE,163,0.0,-999.0,-999,-99.99,,,0.16,0,weatherlink.com 1.10,2013-02-07 22:51:00,
2013-02-07 17:06:00,-999.0,-99.9,29.95,SSE,163,0.0,-999.0,-999,-99.99,,,0.16,0,weatherlink.com 1.10,2013-02-07 23:06:00,
2013-02-07 17:21:00,-999.0,-99.9,29.95,SSE,163,0.0,-999.0,-999,-99.99,,,0.17,0,weatherlink.com 1.10,2013-02-07 23:21:00,
2013-02-07 17:37:00,-999.0,-99.9,29.95,SSE,163,0.0,-999.0,-999,-99.99,,,0.17,0,weatherlink.com 1.10,2013-02-07 23:37:00,
2013-02-07 17:52:00,-999.0,-99.9,29.96,SSE,163,0.0,-999.0,-999,-99.99,,,0.18,0,weatherlink.com 1.10,2013-02-07 23:52:00,
2013-02-07 18:07:00,-999.0,-99.9,29.96,SSE,163,0.0,-999.0,-999,-99.99,,,0.18,0,weatherlink.com 1.10,2013-02-08 00:07:00,
2013-02-07 18:22:00,-999.0,-99.9,29.96,SSE,163,0.0,-999.0,-999,-99.99,,,0.18,0,weatherlink.com 1.10,2013-02-08 00:22:00,
2013-02-07 18:37:00,-999.0,-99.9,29.96,SSE,163,0.0,-999.0,-999,-99.99,,,0.19,0,weatherlink.com 1.10,2013-02-08 00:37:00,
2013-02-07 18:52:00,-999.0,-99.9,29.97,ENE,59,0.0,-999.0,-999,-99.99,,,0.19,0,weatherlink.com 1.10,2013-02-08 00:52:00,
2013-02-07 19:07:00,-999.0,-99.9,29.97,ENE,57,0.0,-999.0,-999,-99.99,,,0.20,0,weatherlink.com 1.10,2013-02-08 01:07:00,
2013-02-07 19:22:00,-999.0,-99.9,29.98,NE,49,0.0,-999.0,-999,-99.99,,,0.20,0,weatherlink.com 1.10,2013-02-08 01:22:00,
2013-02-07 19:37:00,-999.0,-99.9,29.97,NE,36,0.0,-999.0,-999,-99.99,,,0.20,0,weatherlink.com 1.10,2013-02-08 01:37:00,
2013-02-07 19:52:00,-999.0,-99.9,29.97,NNE,32,0.0,-999.0,-999,-99.99,,,0.20,0,weatherlink.com 1.10,2013-02-08 01:52:00,
2013-02-07 20:07:00,-999.0,-99.9,29.98,NNE,32,0.0,-999.0,-999,-99.99,,,0.21,0,weatherlink.com 1.10,2013-02-08 02:07:00,
2013-02-07 20:22:00,-999.0,-99.9,29.98,North,355,0.0,-999.0,-999,-99.99,,,0.21,0,weatherlink.com 1.10,2013-02-08 02:22:00,
2013-02-07 20:37:00,-999.0,-99.9,29.98,North,355,0.0,-999.0,-999,-99.99,,,0.21,0,weatherlink.com 1.10,2013-02-08 02:37:00,
2013-02-07 20:52:00,-999.0,-99.9,29.99,North,11,0.0,-999.0,-999,-99.99,,,0.22,0,weatherlink.com 1.10,2013-02-08 02:52:00,
2013-02-07 21:07:00,-999.0,-99.9,30.00,North,355,1.0,-999.0,-999,-99.99,,,0.22,0,weatherlink.com 1.10,2013-02-08 03:07:00,
2013-02-07 21:22:00,-999.0,-99.9,30.00,NNE,26,0.0,-999.0,-999,-99.99,,,0.22,0,weatherlink.com 1.10,2013-02-08 03:22:00,
2013-02-07 21:37:00,-999.0,-99.9,30.01,NNE,15,0.0,-999.0,-999,-99.99,,,0.22,0,weatherlink.com 1.10,2013-02-08 03:37:00,
2013-02-07 21:52:00,-999.0,-99.9,30.01,WNW,283,0.0,-999.0,-999,-99.99,,,0.23,0,weatherlink.com 1.10,2013-02-08 03:52:00,
2013-02-07 22:07:00,-999.0,-99.9,30.02,NNW,344,0.0,-999.0,-999,-99.99,,,0.23,0,weatherlink.com 1.10,2013-02-08 04:07:00,
2013-02-07 22:23:00,-999.0,-99.9,30.02,NNE,15,3.0,-999.0,-999,-99.99,,,0.23,0,weatherlink.com 1.10,2013-02-08 04:23:00,
2013-02-07 22:38:00,-999.0,-99.9,30.02,NNE,28,1.0,-999.0,-999,-99.99,,,0.23,0,weatherlink.com 1.10,2013-02-08 04:38:00,
2013-02-07 22:53:00,-999.0,-99.9,30.02,North,360,2.0,-999.0,-999,-99.99,,,0.24,0,weatherlink.com 1.10,2013-02-08 04:53:00,
2013-02-07 23:08:00,-999.0,-99.9,30.02,NNW,331,0.0,-999.0,-999,-99.99,,,0.24,0,weatherlink.com 1.10,2013-02-08 05:08:00,
2013-02-07 23:23:00,-999.0,-99.9,30.03,North,9,0.0,-999.0,-999,-99.99,,,0.24,0,weatherlink.com 1.10,2013-02-08 05:23:00,
2013-02-07 23:38:00,-999.0,-99.9,30.04,NNE,26,0.0,-999.0,-999,-99.99,,,0.24,0,weatherlink.com 1.10,2013-02-08 05:38:00,
2013-02-07 23:53:00,-999.0,-99.9,30.04,WNW,297,0.0,-999.0,-999,-99.99,,,0.24,0,weatherlink.com 1.10,2013-02-08 05:53:00,